Albertville, AL

2:53 PM CDT on May 24, 2017 (GMT -0500)
Albertville

Weather History for K8A0 - January, 2012

Change the Weather History Date:

Tuesday, January 31, 2012

  Actual Average (KGAD) Record (KGAD)
Temperature  
Mean Temperature 53 °F -  
Max Temperature 62 °F 51 °F 78 °F (1950)
Min Temperature 44 °F 32 °F 3 °F (1936)
Degree Days  
Heating Degree Days 12    
Growing Degree Days 3 (Base 50)    
Moisture  
Dew Point 28 °F    
Average Humidity 38    
Maximum Humidity 54    
Minimum Humidity 26    
Precipitation  
Precipitation 0.00 in - - ()
Sea Level Pressure  
Sea Level Pressure 30.29 in    
Wind  
Wind Speed 7 mph (SSE)    
Max Wind Speed 12 mph    
Max Gust Speed -    
Visibility 10 miles    
Events      
Averages and records for this station are not official NWS values.
T = Trace of Precipitation, MM = Missing Value Source: NWS Daily Summary

Daily Weather History Graph

Daily Weather History Graph

Search for Another Location

Airport or City:

Trip Planner

Search our weather history database for the weather conditions in past years. The results will help you decide how hot, cold, wet, or windy it might be!

Date:

Astronomy

Jan. 31, 2012 Rise Set
Actual Time 6:43 AM CST 5:13 PM CST
Civil Twilight 6:17 AM CST 5:40 PM CST
Nautical Twilight 5:47 AM CST 6:10 PM CST
Astronomical Twilight 5:17 AM CST 6:39 PM CST
Moon 11:05 AM CST (1/31) 12:29 AM CST (1/31)
Length of Visible Light 11h 23m
Length of Day
10h 30m
First Quarter, 55% of the Moon is Illuminated
Jan 31
First Quarter
Feb 7
Full
Feb 14
Last Quarter
Feb 21
New
Feb 29
First Quarter

Hourly Weather History & Observations

Time (CST) Temp. Windchill Dew Point Humidity Pressure Visibility Wind Dir Wind Speed Gust Speed Precip Events Conditions
12:15 AM 46.4 °F 42.4 °F 21.2 °F 37% 30.32 in 10.0 mi South 8.1 mph - N/A   Clear
12:55 AM 46.4 °F 42.9 °F 21.2 °F 37% 30.32 in 10.0 mi South 6.9 mph - N/A   Clear
1:15 AM 46.4 °F 42.9 °F 21.2 °F 37% 30.32 in 10.0 mi South 6.9 mph - N/A   Scattered Clouds
1:35 AM 46.4 °F 42.4 °F 23.0 °F 40% 30.32 in 10.0 mi South 8.1 mph - N/A   Scattered Clouds
1:55 AM 46.4 °F 42.9 °F 23.0 °F 40% 30.32 in 10.0 mi South 6.9 mph - N/A   Clear
2:15 AM 46.4 °F 42.9 °F 21.2 °F 37% 30.32 in 10.0 mi South 6.9 mph - N/A   Clear
2:35 AM 46.4 °F 42.9 °F 23.0 °F 40% 30.32 in 10.0 mi South 6.9 mph - N/A   Scattered Clouds
2:55 AM 46.4 °F 43.5 °F 23.0 °F 40% 30.32 in 10.0 mi South 5.8 mph - N/A   Mostly Cloudy
3:15 AM 44.6 °F 41.4 °F 24.8 °F 46% 30.32 in 10.0 mi South 5.8 mph - N/A   Mostly Cloudy
3:35 AM 46.4 °F 44.3 °F 23.0 °F 40% 30.31 in 10.0 mi SSE 4.6 mph - N/A   Overcast
3:55 AM 46.4 °F 44.3 °F 21.2 °F 37% 30.31 in 10.0 mi SE 4.6 mph - N/A   Overcast
4:15 AM 46.4 °F 44.3 °F 23.0 °F 40% 30.31 in 10.0 mi SE 4.6 mph - N/A   Overcast
4:35 AM 46.4 °F 42.9 °F 24.8 °F 43% 30.30 in 10.0 mi SSE 6.9 mph - N/A   Overcast
5:15 AM 48.2 °F - 23.0 °F 37% 30.30 in 10.0 mi SSE 8.1 mph - N/A   Overcast
5:35 AM 50.0 °F - 23.0 °F 35% 30.31 in 10.0 mi SSE 6.9 mph - N/A   Overcast
6:15 AM 48.2 °F - 24.8 °F 40% 30.32 in 10.0 mi SSE 5.8 mph - N/A   Overcast
6:35 AM 48.2 °F - 24.8 °F 40% 30.33 in 10.0 mi SSE 5.8 mph - N/A   Overcast
6:55 AM 46.4 °F 42.9 °F 24.8 °F 43% 30.33 in 10.0 mi SSE 6.9 mph - N/A   Overcast
7:15 AM 46.4 °F 43.5 °F 24.8 °F 43% 30.33 in 10.0 mi SSE 5.8 mph - N/A   Mostly Cloudy
7:35 AM 48.2 °F - 24.8 °F 40% 30.33 in 10.0 mi SSE 4.6 mph - N/A   Overcast
7:55 AM 48.2 °F - 26.6 °F 43% 30.33 in 10.0 mi ESE 3.5 mph - N/A   Scattered Clouds
8:15 AM 50.0 °F - 26.6 °F 40% 30.34 in 10.0 mi SE 4.6 mph - N/A   Clear
8:35 AM 51.8 °F - 26.6 °F 38% 30.33 in 10.0 mi SE 5.8 mph - N/A   Clear
8:55 AM 51.8 °F - 26.6 °F 38% 30.34 in 10.0 mi SSE 5.8 mph - N/A   Mostly Cloudy
9:15 AM 51.8 °F - 26.6 °F 38% 30.34 in 10.0 mi SSE 4.6 mph - N/A   Overcast
9:35 AM 51.8 °F - 28.4 °F 41% 30.34 in 10.0 mi SSE 4.6 mph - N/A   Overcast
9:55 AM 53.6 °F - 28.4 °F 38% 30.34 in 10.0 mi South 4.6 mph - N/A   Mostly Cloudy
10:15 AM 57.2 °F - 26.6 °F 31% 30.34 in 10.0 mi South 10.4 mph - N/A   Mostly Cloudy
10:35 AM 57.2 °F - 26.6 °F 31% 30.34 in 10.0 mi South 9.2 mph - N/A   Overcast
10:55 AM 59.0 °F - 28.4 °F 31% 30.32 in 10.0 mi South 8.1 mph - N/A   Mostly Cloudy
11:15 AM 62.6 °F - 26.6 °F 26% 30.31 in 10.0 mi South 10.4 mph - N/A   Scattered Clouds
11:35 AM 60.8 °F - 28.4 °F 29% 30.30 in 10.0 mi South 9.2 mph - N/A   Scattered Clouds
11:55 AM 60.8 °F - 28.4 °F 29% 30.30 in 10.0 mi South 11.5 mph - N/A   Scattered Clouds
12:15 PM 60.8 °F - 30.2 °F 31% 30.29 in 10.0 mi South 8.1 mph - N/A   Scattered Clouds
12:35 PM 60.8 °F - 30.2 °F 31% 30.27 in 10.0 mi South 9.2 mph - N/A   Scattered Clouds
12:55 PM 60.8 °F - 30.2 °F 31% 30.26 in 10.0 mi South 10.4 mph - N/A   Clear
1:15 PM 60.8 °F - 30.2 °F 31% 30.25 in 10.0 mi SSE 5.8 mph - N/A   Mostly Cloudy
1:35 PM 59.0 °F - 32.0 °F 36% 30.25 in 10.0 mi South 6.9 mph - N/A   Overcast
1:55 PM 60.8 °F - 32.0 °F 34% 30.25 in 10.0 mi South 8.1 mph - N/A   Mostly Cloudy
2:15 PM 59.0 °F - 32.0 °F 36% 30.24 in 10.0 mi South 6.9 mph - N/A   Mostly Cloudy
2:35 PM 60.8 °F - 32.0 °F 34% 30.24 in 10.0 mi SSE 5.8 mph - N/A   Mostly Cloudy
2:55 PM 60.8 °F - 32.0 °F 34% 30.23 in 10.0 mi SSE 5.8 mph - N/A   Scattered Clouds
3:15 PM 62.6 °F - 32.0 °F 32% 30.22 in 10.0 mi South 5.8 mph - N/A   Clear
3:55 PM 60.8 °F - 33.8 °F 36% 30.23 in 10.0 mi South 10.4 mph - N/A   Scattered Clouds
4:35 PM 59.0 °F - 33.8 °F 39% 30.22 in 10.0 mi South 8.1 mph - N/A   Scattered Clouds
5:15 PM 59.0 °F - 35.6 °F 42% 30.23 in 10.0 mi South 4.6 mph - N/A   Scattered Clouds
5:35 PM 57.2 °F - 35.6 °F 44% 30.23 in 10.0 mi SSE 4.6 mph - N/A   Clear
5:55 PM 57.2 °F - 35.6 °F 44% 30.24 in 10.0 mi SSE 4.6 mph - N/A   Clear
6:15 PM 57.2 °F - 35.6 °F 44% 30.24 in 10.0 mi SSE 4.6 mph - N/A   Clear
6:35 PM 57.2 °F - 35.6 °F 44% 30.24 in 10.0 mi SSE 3.5 mph - N/A   Clear
7:15 PM 55.4 °F - 35.6 °F 47% 30.24 in 10.0 mi SE 4.6 mph - N/A   Clear
7:35 PM 55.4 °F - 35.6 °F 47% 30.24 in 10.0 mi SSE 4.6 mph - N/A   Clear
7:55 PM 53.6 °F - 37.4 °F 54% 30.24 in 10.0 mi SE 5.8 mph - N/A   Clear
8:35 PM 53.6 °F - 37.4 °F 54% 30.24 in 10.0 mi SE 5.8 mph - N/A   Clear
8:55 PM 53.6 °F - 37.4 °F 54% 30.23 in 10.0 mi SSE 6.9 mph - N/A   Mostly Cloudy
9:15 PM 55.4 °F - 37.4 °F 51% 30.23 in 10.0 mi SSE 5.8 mph - N/A   Overcast
9:35 PM 55.4 °F - 39.2 °F 54% 30.23 in 10.0 mi SSE 9.2 mph - N/A   Mostly Cloudy
9:55 PM 55.4 °F - 39.2 °F 54% 30.23 in 10.0 mi SSE 8.1 mph - N/A   Mostly Cloudy
10:15 PM 55.4 °F - 39.2 °F 54% 30.23 in 10.0 mi SSE 6.9 mph - N/A   Clear
10:35 PM 55.4 °F - 41.0 °F 58% 30.22 in 10.0 mi SSE 6.9 mph - N/A   Mostly Cloudy
10:55 PM 55.4 °F - 41.0 °F 58% 30.22 in 10.0 mi South 9.2 mph - N/A   Overcast
11:35 PM 57.2 °F - 42.8 °F 59% 30.22 in 10.0 mi South 5.8 mph - N/A   Overcast
11:55 PM 57.2 °F - 42.8 °F 59% 30.22 in 10.0 mi South 5.8 mph - N/A   Mostly Cloudy